Hourly Weather Hurghada

Today, 15 April, Thursday

Time Temperature Precipitation Wind Pressure Humidity
00:00 +19°C° 0 mm 2 mps 683 mmHg 19%
01:00 +19°C° 0 mm 1 mps 683 mmHg 20%
02:00 +19°C° 0 mm 1 mps 683 mmHg 20%
03:00 +18°C° 0 mm 1 mps 683 mmHg 21%
04:00 +16°C° 0 mm 1 mps 683 mmHg 22%
05:00 +16°C° 0 mm 1 mps 682 mmHg 23%
06:00 +19°C° 0 mm 1 mps 683 mmHg 21%
07:00 +21°C° 0 mm 1 mps 684 mmHg 18%
08:00 +23°C° 0 mm 2 mps 684 mmHg 16%
09:00 +25°C° 0 mm 2 mps 685 mmHg 14%
10:00 +26°C° 0 mm 2 mps 685 mmHg 13%
11:00 +28°C° 0 mm 3 mps 685 mmHg 11%
12:00 +28°C° 0 mm 3 mps 685 mmHg 11%
13:00 +29°C° 0 mm 4 mps 684 mmHg 11%
14:00 +30°C° 0 mm 5 mps 684 mmHg 11%
15:00 +29°C° 0 mm 4 mps 684 mmHg 12%
16:00 +28°C° 0 mm 4 mps 683 mmHg 13%
17:00 +28°C° 0 mm 4 mps 683 mmHg 14%
18:00 +26°C° 0 mm 4 mps 683 mmHg 16%
19:00 +24°C° 0 mm 3 mps 683 mmHg 18%
20:00 +22°C° 0 mm 3 mps 683 mmHg 20%
21:00 +22°C° 0 mm 3 mps 683 mmHg 20%
22:00 +21°C° 0 mm 3 mps 683 mmHg 19%
23:00 +21°C° 0 mm 2 mps 683 mmHg 19%

Tomorrow, 16 April, Friday

Time Temperature Precipitation Wind Pressure Humidity
00:00 +21°C° 0 mm 2 mps 682 mmHg 20%
01:00 +20°C° 0 mm 2 mps 682 mmHg 21%
02:00 +20°C° 0 mm 2 mps 682 mmHg 22%
03:00 +19°C° 0 mm 2 mps 681 mmHg 23%
04:00 +20°C° 0 mm 1 mps 681 mmHg 23%
05:00 +19°C° 0 mm 1 mps 681 mmHg 24%
06:00 +21°C° 0 mm 1 mps 682 mmHg 21%
07:00 +24°C° 0 mm 2 mps 683 mmHg 17%
08:00 +26°C° 0 mm 2 mps 683 mmHg 14%
09:00 +27°C° 0 mm 2 mps 684 mmHg 13%
10:00 +29°C° 0 mm 3 mps 684 mmHg 12%
11:00 +30°C° 0 mm 3 mps 684 mmHg 11%
12:00 +30°C° 0 mm 4 mps 684 mmHg 11%
13:00 +32°C° 0 mm 4 mps 683 mmHg 11%
14:00 +32°C° 0 mm 5 mps 683 mmHg 11%
15:00 +32°C° 0 mm 5 mps 683 mmHg 12%
16:00 +30°C° 0 mm 5 mps 683 mmHg 13%
17:00 +29°C° 0 mm 5 mps 683 mmHg 15%
18:00 +27°C° 0 mm 4 mps 683 mmHg 16%
19:00 +26°C° 0 mm 3 mps 683 mmHg 17%
20:00 +25°C° 0 mm 3 mps 683 mmHg 18%
21:00 +24°C° 0 mm 3 mps 683 mmHg 19%
22:00 +24°C° 0 mm 3 mps 683 mmHg 20%
23:00 +22°C° 0 mm 3 mps 683 mmHg 21%

Day after tomorrow, 17 April, Saturday

Time Temperature Precipitation Wind Pressure Humidity
00:00 +22°C° 0 mm 3 mps 682 mmHg 22%
01:00 +21°C° 0 mm 3 mps 682 mmHg 23%
02:00 +20°C° 0 mm 2 mps 682 mmHg 24%
03:00 +20°C° 0 mm 2 mps 682 mmHg 23%
04:00 +20°C° 0 mm 2 mps 682 mmHg 22%
05:00 +20°C° 0 mm 2 mps 682 mmHg 22%
06:00 +21°C° 0 mm 2 mps 683 mmHg 20%
07:00 +24°C° 0 mm 2 mps 683 mmHg 17%
08:00 +26°C° 0 mm 2 mps 684 mmHg 15%
09:00 +28°C° 0 mm 2 mps 684 mmHg 14%
10:00 +29°C° 0 mm 2 mps 685 mmHg 13%
11:00 +30°C° 0 mm 3 mps 685 mmHg 12%
12:00 +31°C° 0 mm 3 mps 685 mmHg 12%
13:00 +31°C° 0 mm 3 mps 684 mmHg 13%
14:00 +33°C° 0 mm 4 mps 684 mmHg 13%
15:00 +31°C° 0 mm 3 mps 684 mmHg 13%
16:00 +31°C° 0 mm 3 mps 684 mmHg 14%
17:00 +30°C° 0 mm 3 mps 684 mmHg 14%
18:00 +29°C° 0 mm 2 mps 684 mmHg 16%
19:00 +27°C° 0 mm 2 mps 684 mmHg 18%
20:00 +25°C° 0 mm 2 mps 684 mmHg 20%
21:00 +25°C° 0 mm 2 mps 684 mmHg 20%
22:00 +25°C° 0 mm 2 mps 684 mmHg 20%
23:00 +24°C° 0 mm 2 mps 684 mmHg 20%

18 April, Sunday

Time Temperature Precipitation Wind Pressure Humidity
00:00 +24°C° 0 mm 2 mps 684 mmHg 19%
01:00 +24°C° 0 mm 2 mps 683 mmHg 18%
02:00 +24°C° 0 mm 2 mps 683 mmHg 18%
03:00 +23°C° 0 mm 2 mps 683 mmHg 19%
04:00 +23°C° 0 mm 2 mps 683 mmHg 19%
05:00 +23°C° 0 mm 2 mps 683 mmHg 20%
06:00 +25°C° 0 mm 2 mps 684 mmHg 19%
07:00 +27°C° 0 mm 2 mps 685 mmHg 18%
08:00 +29°C° 0 mm 2 mps 686 mmHg 16%
09:00 +30°C° 0 mm 3 mps 686 mmHg 16%
10:00 +31°C° 0 mm 3 mps 686 mmHg 16%
11:00 +33°C° 0 mm 4 mps 686 mmHg 15%
12:00 +34°C° 0 mm 4 mps 686 mmHg 15%
13:00 +34°C° 0 mm 5 mps 686 mmHg 16%
14:00 +35°C° 0 mm 5 mps 686 mmHg 16%
15:00 +34°C° 0 mm 5 mps 685 mmHg 16%
16:00 +34°C° 0 mm 4 mps 685 mmHg 17%
17:00 +33°C° 0 mm 4 mps 685 mmHg 17%
18:00 +31°C° 0 mm 3 mps 684 mmHg 20%
19:00 +29°C° 0 mm 2 mps 684 mmHg 22%
20:00 +27°C° 0 mm 1 mps 684 mmHg 24%
21:00 +26°C° 0 mm 1 mps 684 mmHg 24%
22:00 +24°C° 0 mm 0 mps 684 mmHg 24%
23:00 +23°C° 0 mm 0 mps 684 mmHg 24%

19 April, Monday

Time Temperature Precipitation Wind Pressure Humidity
00:00 +23°C° 0 mm 0 mps 684 mmHg 23%
01:00 +25°C° 0 mm 1 mps 683 mmHg 23%
02:00 +25°C° 0 mm 1 mps 683 mmHg 22%
03:00 +24°C° 0 mm 1 mps 683 mmHg 23%
04:00 +24°C° 0 mm 1 mps 683 mmHg 23%
05:00 +24°C° 0 mm 1 mps 683 mmHg 23%
06:00 +26°C° 0 mm 2 mps 684 mmHg 20%
07:00 +29°C° 0 mm 2 mps 685 mmHg 18%
08:00 +31°C° 0 mm 2 mps 686 mmHg 15%
09:00 +33°C° 0 mm 3 mps 686 mmHg 15%
10:00 +34°C° 0 mm 4 mps 686 mmHg 14%
11:00 +36°C° 0 mm 5 mps 686 mmHg 14%
12:00 +36°C° 0 mm 5 mps 685 mmHg 13%
13:00 +37°C° 0 mm 5 mps 685 mmHg 13%
14:00 +37°C° 0 mm 5 mps 684 mmHg 13%
15:00 +36°C° 0 mm 5 mps 684 mmHg 14%
16:00 +35°C° 0 mm 5 mps 684 mmHg 15%
17:00 +34°C° 0 mm 5 mps 683 mmHg 16%
18:00 +33°C° 0 mm 4 mps 683 mmHg 18%
19:00 +30°C° 0 mm 3 mps 683 mmHg 19%
20:00 +29°C° 0 mm 2 mps 683 mmHg 20%
21:00 +29°C° 0 mm 2 mps 683 mmHg 20%
22:00 +28°C° 0 mm 1 mps 683 mmHg 21%
23:00 +28°C° 0 mm 1 mps 683 mmHg 21%

20 April, Tuesday

Time Temperature Precipitation Wind Pressure Humidity
00:00 +27°C° 0 mm 2 mps 683 mmHg 24%
01:00 +27°C° 0 mm 2 mps 683 mmHg 26%
02:00 +27°C° 0 mm 3 mps 683 mmHg 28%
03:00 +25°C° 0 mm 2 mps 683 mmHg 31%
04:00 +24°C° 0 mm 2 mps 683 mmHg 34%
05:00 +23°C° 0 mm 1 mps 682 mmHg 37%
06:00 +24°C° 0 mm 2 mps 683 mmHg 34%
07:00 +26°C° 0 mm 2 mps 684 mmHg 31%
08:00 +27°C° 0 mm 2 mps 684 mmHg 28%
09:00 +28°C° 0 mm 3 mps 684 mmHg 26%
10:00 +30°C° 0 mm 3 mps 685 mmHg 24%
11:00 +32°C° 0 mm 4 mps 685 mmHg 21%
12:00 +33°C° 0 mm 4 mps 685 mmHg 21%
13:00 +33°C° 0 mm 4 mps 684 mmHg 20%
14:00 +34°C° 0 mm 5 mps 684 mmHg 19%
15:00 +33°C° 0 mm 4 mps 684 mmHg 20%
16:00 +32°C° 0 mm 4 mps 684 mmHg 21%
17:00 +30°C° 0 mm 4 mps 683 mmHg 22%
18:00 +28°C° 0 mm 4 mps 683 mmHg 24%
19:00 +27°C° 0 mm 3 mps 684 mmHg 26%
20:00 +25°C° 0 mm 3 mps 684 mmHg 27%
21:00 +24°C° 0 mm 3 mps 684 mmHg 27%
22:00 +24°C° 0 mm 3 mps 684 mmHg 27%
23:00 +24°C° 0 mm 2 mps 684 mmHg 27%
Show more

We Need Your Consent

Meteoprog and our Service Providers may store and access personal data such as cookies, device identifiers or other similar technologies on your device and process such data to personalise content and ads, as well as provide social media features and to analyse the traffic.

  • Store and/or access information on your device

    Cookies, device identifiers or other information can be stored or accessed on your device for the purposes indicated above.

  • Personalised ads and content, ad and content measurement, audience insights, and products development

    Ads and content can be personalised based on a profile. More data can be added to better personalise ads and content. Ad and content performance can be measured. Insights about the audience who saw the ads and content can be derived. Such data can be used to develop or improve user’s experience, systems and software.

By clicking ‘I Agree’ you will allow the use of indicated cookies, device identifiers, web beacons or other similar technologies. Your settings can be changed in the browser on your device.

For certain purposes, legitimate interests may be relied on, rather than consent. You can read more about this in our Privacy and Cookie Policy.